Location: Furnace Creek
(36.4500°N, 116.8500°W)
Time: 07:11:32
(UTC-08:00)

X-37B - Visible Passes

Search period start: 27 November 2020 00:00
Search period end: 07 December 2020 00:00
Orbit: 384 x 389 km, 45.0° (Epoch: 12 November)

Date Brightness Start Highest point End Pass type
(mag) Time Alt. Az. Time Alt. Az. Time Alt. Az.
27 Nov 0.6 17:45:27 10° WSW 17:48:35 71° NNW 17:49:47 34° NE visible
28 Nov 2.5 18:24:04 10° WNW 18:26:11 24° NW 18:26:11 24° NW visible
29 Nov 1.5 17:25:06 10° W 17:28:06 39° NNW 17:30:16 16° NE visible
30 Nov 2.5 18:04:00 10° WNW 18:06:27 20° NNW 18:06:36 20° N visible
01 Dec 2.1 17:04:56 10° WNW 17:07:41 26° NNW 17:10:26 10° NE visible
01 Dec 3.7 18:42:49 10° NW 18:42:55 10° NW 18:42:55 10° NW visible
02 Dec 2.6 17:43:55 10° NW 17:46:09 18° N 17:46:57 16° NNE visible
03 Dec 3.2 18:22:23 10° NW 18:23:17 14° NNW 18:23:17 14° NNW visible
04 Dec 2.6 17:23:41 10° NW 17:25:52 17° N 17:27:22 13° NE visible
05 Dec 2.4 18:01:49 10° NW 18:03:47 21° N 18:03:47 21° N visible
06 Dec 2.4 17:03:15 10° NW 17:05:34 18° N 17:07:52 10° NE visible
06 Dec 3.3 18:39:37 10° NW 18:40:17 15° NW 18:40:17 15° NW visible
